Domov               UVHVVR             MKGP            O straneh              
ZDRAVSTVENO VARSTVO RASTLIN
  MREŽA AGROMET. POSTAJ
 ► PROGNOSTIČNA OBVESTILA
AGROMETEOROLOŠKI PODATKI -
ARSO
OBVLADOVANJE TVEGANJ ZARADI
NEUGODNIH VREMENSKIH RAZMER
  ► NARAVNE NESREČE
  ► SUŠA/MOČA
  ► NAMAKANJE
  ► ŽLED (gozdarstvo)
KARTOGRAFSKI PRIKAZI
SPLETNE POVEZAVE
PROJEKTI IN PUBLIKACIJE

AGROMETEOROLOŠKA MREŽA: VREMENSKE POSTAJE IN FENOLOŠKA OPAZOVANJA

Pregled podatkov za lokacijo Brdo, meteorološka postaja 45235

Pregled senzorjev na lokaciji

ID Ime Zadnja
vrednost
Datum
zadnje
spremembe
Tip
senzorja
3761 Temperatura 2 m ( °C) 9,29 °C 23.10.2017 11:00 50YA
3762 Relativna vlaga 2 m (% RH) 90,73 % RH 23.10.2017 11:00 50YA
3763 Omočenost lista (U) 0 U 23.10.2017 11:00 A730WET
3765 Sončno sevanje (W/m2) 163,82 W/m2 23.10.2017 10:59 Pyranometer SP-Lite
3766 Smer vetra (°) 197,77 ° 23.10.2017 10:59 566.2S-130
3767 Hitrost vetra (km/h) 1,86 km/h 23.10.2017 10:59 566.2S-176 (200km/h)
3768 Padavine 0.2 mm (mm) 0 mm 23.10.2017 10:59 Rain-O-Matic

Pregled podatkov zadnjih 24 ur

Zap.
št.
Datum in čas Brdo
Hitrost
vetra
Omočenost
lista
Padavine
0.2
mm
Relativna
vlaga
2
m
Smer
vetra
Sončno
sevanje
Temperatura
2
m
0 23.10.2017 10:00 1,86 0 0 90,73 197,77 163,82 9,29
1 23.10.2017 09:30 1,29 0 0 92,76 226,96 190,22 9,07
2 23.10.2017 09:00 1,04 0 0 98,29 291,31 203,19 8,09
3 23.10.2017 08:30 2,36 0 0 100 111,84 155,79 6,8
4 23.10.2017 08:00 1,14 0 0 100 347,04 60,61 5,85
5 23.10.2017 07:30 0,05 0 0 100 37,85 30,21 5,42
6 23.10.2017 07:00 0,17 0 0 100 18,05 9,58 5,5
7 23.10.2017 06:30 0,05 0 0 100 325,26 1,19 5,68
8 23.10.2017 06:00 0,05 0 0 100 351,53 0,64 5,78
9 23.10.2017 05:30 0,05 0 0 100 17,57 0,64 5,85
10 23.10.2017 05:00 0,05 0 0 100 218,76 0,61 5,81
11 23.10.2017 04:30 0,05 0 0 100 359,75 0,61 5,82
12 23.10.2017 04:00 0,05 0 0 100 191,54 0,58 5,97
13 23.10.2017 03:30 0,05 0 0 100 271,27 0,67 6,05
14 23.10.2017 03:00 0,05 0 0 100 264,6 0,7 6,14
15 23.10.2017 02:30 0,32 0 0 100 281,95 0,61 6,27
16 23.10.2017 02:00 0,82 0 0 100 149,97 0,61 6,33
17 23.10.2017 01:30 0,38 0 0 100 215,37 0,64 6,38
18 23.10.2017 01:00 0,05 0 0 100 293,44 0,64 6,51
19 23.10.2017 00:30 0,36 0 0 100 106,38 0,61 6,55
20 23.10.2017 00:00 1,55 0 0 100 314,88 0,61 6,65
21 22.10.2017 23:30 0,05 0 0 100 267,03 6,73
22 22.10.2017 23:00 0,05 0,2 100 195,19 6,73
23 22.10.2017 22:30 0,05 0 0 100 32,07 6,73
24 22.10.2017 22:00 0,05 0,2 100 246,73 6,81
25 22.10.2017 21:30 0,05 0,6 100 230,85 7
26 22.10.2017 21:00 0,05 1,6 100 188,67 7,23
27 22.10.2017 20:30 0,49 1,8 100 359,37 7,52
28 22.10.2017 20:00 0,51 4,2 100 325,47 7,83
29 22.10.2017 19:30 0,52 2,4 100 23,22 7,99
30 22.10.2017 19:00 1,2 0,8 100 356,73 8,2
31 22.10.2017 18:30 1,71 0,2 100 76,64 8,39
32 22.10.2017 18:00 1,2 1,8 100 26,77 8,67
33 22.10.2017 17:30 0,61 2,6 100 50,26 9,26
34 22.10.2017 17:00 1,49 2,2 100 308,76 1,13 9,47
35 22.10.2017 16:30 0,86 0,4 100 270,84 1,83 9,69
36 22.10.2017 16:00 1,51 0,2 99,8 17 12,7 9,78
37 22.10.2017 15:30 1,95 0,2 98,62 344,59 64,18 10,71
38 22.10.2017 15:00 1,17 0,8 100 39,65 63,66 11,2
39 22.10.2017 14:30 0,79 1,4 100 315,8 44,22 10,93
40 22.10.2017 14:00 1,11 0,6 100 347,66 32,75 10,77
41 22.10.2017 13:30 2,68 0,8 100 175,44 38,79 10,74
42 22.10.2017 13:00 1,58 1,8 100 283,21 31,74 10,51
43 22.10.2017 12:30 0,19 1,4 100 221,4 35,98 10,5
44 22.10.2017 12:00 2,95 1,6 100 56,47 23,04 10,33
© 2011 Ministrstvo za kmetijstvo, gozdarstvo in prehrano. Vse pravice pridržane.